STARLINK-32346

Last updated on Thu Nov 21 2024 00:02:05 GMT+0000 (Coordinated Universal Time)

1 61849U 24202E 24325.58335648 -.01299304 00000+0 -88023-2 0 9998 2 61849 43.0039 50.6304 0001393 285.6150 116.3436 15.76627897 3140
UTC large
Height (km)
Speed (km/s)
/
Latitude / Longitude
Inclination (degrees)
Orbital Period (minutes)
Azimuth
Elevation
Range (km)
Doppler Factor

Next 0 passes for location: London (51.5072 / 0.1276)

Sorry there are no passes over London.